FW7370 Weather Reports


time (UTC)temp
F
wind
direction
speed
knots
gust
knots
rain 1hr
in
rain 24hr
in
rain mn
in
humidity
%
barometer
mb
20260505113427 0 121 13.0 19.1 0.00 0.00 0.00 1026.6
20260505112927 0 124 13.0 18.2 0.00 0.00 0.00 1026.5
20260505111912 0 114 13.0 18.2 0.00 0.00 0.00 1026.5
20260505111412 0 128 12.2 17.4 0.00 0.00 0.00 1026.5
20260505110912 0 122 10.4 17.4 0.00 0.00 0.00 1026.7
20260505110412 0 113 9.6 16.5 0.00 0.00 0.00 1026.6
20260505101856 0 110 7.8 13.0 0.00 0.00 0.00 1026.2
20260505101356 0 94 7.8 12.2 0.00 0.00 0.00 1026.3
20260505100856 0 97 6.1 11.3 0.00 0.00 0.00 1026.3
20260505100356 0 48 6.1 10.4 0.00 0.00 0.00 1026.1
20260505095856 0 95 6.1 12.2 0.00 0.00 0.00 1025.9
20260505095356 0 109 5.2 12.2 0.00 0.00 0.00 1026.0
20260505094856 0 124 8.7 14.8 0.00 0.00 0.00 1025.9
20260505094356 0 116 9.6 13.9 0.00 0.00 0.00 1025.8
20260505093856 0 118 7.0 13.0 0.00 0.00 0.00 1025.7
20260505093355 0 107 6.1 13.0 0.00 0.00 0.00 1026.1
20260505092854 0 97 8.7 13.0 0.00 0.00 0.00 1026.0
20260505092353 0 71 6.1 12.2 0.00 0.00 0.00 1025.6
20260505091853 0 92 6.1 10.4 0.00 0.00 0.00 1025.7
20260505091353 0 54 4.3 10.4 0.00 0.00 0.00 1025.6
20260505090852 0 81 5.2 11.3 0.00 0.00 0.00 1025.9
20260505090352 0 111 7.0 11.3 0.00 0.00 0.00 1025.4
20260505085852 0 85 5.2 12.2 0.00 0.00 0.00 1025.3
20260505085352 0 95 6.1 13.0 0.00 0.00 0.00 1025.5
20260505084852 0 87 7.0 13.0 0.00 0.00 0.00 1025.0
20260505084352 0 89 5.2 12.2 0.00 0.00 0.00 1025.3
20260505083852 0 125 7.8 12.2 0.00 0.00 0.00 1025.1
20260505082837 0 99 5.2 11.3 0.00 0.00 0.00 1025.3
20260505082337 0 89 6.1 13.0 0.00 0.00 0.00 1025.3
20260505081837 0 105 8.7 13.9 0.00 0.00 0.00 1025.1
20260505081337 0 117 7.8 16.5 0.00 0.00 0.00 1025.0
20260505080837 0 121 8.7 17.4 0.00 0.00 0.00 1025.2
20260505080337 0 118 12.2 17.4 0.00 0.00 0.00 1025.0
20260505075836 0 114 11.3 16.5 0.00 0.00 0.00 1024.8
20260505075335 0 124 8.7 16.5 0.00 0.00 0.00 1024.9
20260505074835 0 128 10.4 16.5 0.00 0.00 0.00 1024.8
20260505074335 0 114 9.6 16.5 0.00 0.00 0.00 1024.8
20260505073835 0 119 8.7 16.5 0.00 0.00 0.00 1024.7
20260505073335 0 119 10.4 16.5 0.00 0.00 0.00 1024.9
20260505072835 0 120 9.6 16.5 0.00 0.00 0.00 1024.9
20260505071820 0 124 9.6 17.4 0.00 0.00 0.00 1024.9
20260505070805 0 129 9.6 17.4 0.00 0.00 0.00 1024.9
20260505070305 0 122 11.3 16.5 0.00 0.00 0.00 1024.9
20260505065805 0 125 9.6 18.2 0.00 0.00 0.00 1025.1
20260505065305 0 118 9.6 18.2 0.00 0.00 0.00 1024.9
20260505064250 0 107 7.8 12.2 0.00 0.00 0.00 1025.0
20260505062720 0 98 7.0 16.5 0.00 0.00 0.00 1025.2
20260505061705 0 114 8.7 13.0 0.00 0.00 0.00 1025.7
20260505061205 0 93 7.0 13.9 0.00 0.00 0.00 1025.3
20260505060149 0 83 7.8 17.4 0.00 0.00 0.00 1025.3
20260505055648 0 92 9.6 17.4 0.00 0.00 0.00 1025.2
20260505055148 0 98 9.6 17.4 0.00 0.00 0.00 1025.2
20260505054648 0 99 7.0 17.4 0.00 0.00 0.00 1025.3
20260505054148 0 81 7.0 13.0 0.00 0.00 0.00 1025.2
20260505053648 0 85 7.0 13.9 0.00 0.00 0.00 1025.3
20260505053148 0 95 7.0 13.9 0.00 0.00 0.00 1025.3
20260505052647 0 98 7.8 13.0 0.00 0.00 0.00 1025.3
20260505052146 0 112 7.8 13.9 0.00 0.00 0.00 1025.6
20260505051645 0 94 8.7 13.9 0.00 0.00 0.00 1025.6
20260505051145 0 103 7.8 13.9 0.00 0.00 0.00 1025.7
20260505050644 0 110 9.6 13.0 0.00 0.00 0.00 1025.7
20260505050144 0 110 7.8 17.4 0.00 0.00 0.00 1025.6
20260505041642 0 96 7.8 13.0 0.00 0.00 0.00 1026.1
20260505040627 0 83 7.8 13.0 0.00 0.00 0.00 1025.7
20260505040127 0 82 6.1 13.9 0.00 0.00 0.00 1025.8
20260505035627 0 120 9.6 14.8 0.00 0.00 0.01 1026.1
20260505035127 0 122 9.6 16.5 0.00 0.00 0.01 1025.8
20260505034111 0 119 9.6 18.2 0.00 0.00 0.01 1026.0
20260505033611 0 122 11.3 18.2 0.00 0.00 0.01 1025.9
20260505033111 0 129 11.3 18.2 0.00 0.00 0.01 1026.0
20260505032610 0 117 8.7 13.9 0.00 0.00 0.01 1026.2
20260505032110 0 122 8.7 16.5 0.00 0.00 0.01 1026.2
20260505031610 0 127 10.4 16.5 0.00 0.00 0.01 1026.3
20260505030038 0 111 7.8 14.8 0.00 0.00 0.01 1026.1
20260505025538 0 113 8.7 14.8 0.00 0.00 0.01 1026.2
20260505024522 0 115 6.1 11.3 0.00 0.00 0.01 1026.6
20260505024022 0 88 4.3 11.3 0.00 0.00 0.01 1026.4
20260505023521 0 87 3.5 11.3 0.00 0.00 0.01 1026.2
20260505022506 0 90 6.1 13.0 0.00 0.00 0.01 1026.7
20260505021451 0 125 8.7 13.0 0.00 0.00 0.01 1026.6
20260505020951 0 105 9.6 13.9 0.00 0.00 0.01 1026.1
20260505020451 0 123 9.6 13.9 0.00 0.00 0.01 1026.2
20260505015950 0 113 9.6 16.5 0.00 0.00 0.01 1026.4
20260505015450 0 121 10.4 16.5 0.00 0.00 0.01 1026.5
20260505014950 0 120 8.7 13.9 0.00 0.00 0.01 1026.4
20260505014450 0 124 8.7 14.8 0.00 0.00 0.01 1026.3
20260505013950 0 124 10.4 14.8 0.00 0.00 0.01 1026.3
20260505013449 0 121 9.6 13.0 0.00 0.00 0.01 1026.5
20260505012949 0 118 9.6 13.0 0.00 0.00 0.01 1026.0
20260505011419 0 123 7.0 13.0 0.00 0.00 0.01 1026.3
20260505010919 0 107 7.0 13.0 0.00 0.00 0.01 1026.2
20260505010419 0 105 7.0 13.9 0.00 0.00 0.01 1026.1
20260505005919 0 124 7.8 13.9 0.00 0.00 0.01 1026.1
20260505005419 0 122 9.6 13.9 0.00 0.00 0.01 1026.1
20260505004919 0 116 9.6 13.9 0.00 0.00 0.01 1026.2
20260505004419 0 120 7.0 13.0 0.00 0.00 0.01 1026.2
20260505003403 0 115 9.6 14.8 0.00 0.00 0.01 1025.7
20260505002902 0 123 11.3 14.8 0.00 0.00 0.01 1025.7
20260505002402 0 108 11.3 14.8 0.00 0.00 0.01 1025.5
20260505001902 0 122 7.8 13.0 0.00 0.00 0.01 1025.5
20260505000847 0 138 4.3 13.9 0.00 0.00 0.01 1025.4
20260505000347 0 129 7.0 13.9 0.00 0.00 0.01 1025.6
20260504235847 0 116 6.1 11.3 0.00 0.00 0.01 1025.3
20260504235347 0 134 4.3 11.3 0.00 0.00 0.01 1025.4
20260504234847 0 138 5.2 12.2 0.00 0.00 0.01 1025.2
20260504234347 0 134 6.1 12.2 0.00 0.00 0.01 1025.4
20260504233848 0 135 6.1 9.6 0.00 0.00 0.01 1025.4
20260504233347 0 138 5.2 9.6 0.00 0.00 0.01 1025.6
20260504232847 0 128 4.3 9.6 0.00 0.00 0.01 1025.4
20260504232348 0 129 6.1 10.4 0.00 0.00 0.01 1025.2
20260504231848 0 144 4.3 10.4 0.00 0.00 0.01 1025.2
20260504231348 0 128 5.2 10.4 0.00 0.00 0.01 1025.0
20260504230847 0 103 6.1 11.3 0.00 0.00 0.01 1025.1
20260504230347 0 114 6.1 11.3 0.00 0.00 0.01 1024.9
20260504225848 0 117 7.0 9.6 0.00 0.00 0.01 1025.1
20260504225347 0 114 6.1 12.2 0.00 0.00 0.01 1025.1
20260504224848 0 115 4.3 12.2 0.00 0.00 0.01 1024.8
20260504224347 0 124 4.3 12.2 0.00 0.00 0.01 1025.1
20260504223332 0 119 7.8 12.2 0.00 0.00 0.01 1024.5
20260504222833 0 110 5.2 13.9 0.00 0.00 0.01 1024.8
20260504222332 0 106 6.1 10.4 0.00 0.00 0.01 1024.6
20260504221833 0 114 3.5 10.4 0.00 0.00 0.01 1024.7
20260504220818 0 134 4.3 13.0 0.00 0.00 0.01 1024.4
20260504220318 0 126 7.0 13.0 0.00 0.00 0.01 1024.1
20260504215817 0 116 5.2 12.2 0.00 0.00 0.01 1024.0
20260504214803 0 129 7.0 13.0 0.00 0.00 0.01 1024.2
20260504214303 0 132 7.8 14.8 0.00 0.00 0.01 1024.1
20260504213802 0 106 7.0 14.8 0.00 0.00 0.01 1023.6
20260504213302 0 115 7.0 13.9 0.00 0.00 0.01 1024.1
20260504212248 0 126 4.3 12.2 0.00 0.00 0.01 1023.7
20260504211748 0 115 7.8 14.8 0.00 0.00 0.01 1023.9
20260504211248 0 110 9.6 14.8 0.00 0.00 0.01 1023.8
20260504210748 0 119 8.7 14.8 0.00 0.00 0.01 1023.9
20260504210248 0 105 8.7 14.8 0.00 0.00 0.01 1024.0
20260504205747 0 103 9.6 14.8 0.00 0.00 0.01 1023.8
20260504205248 0 110 9.6 16.5 0.00 0.00 0.01 1024.1
20260504204748 0 108 9.6 16.5 0.00 0.00 0.01 1024.0
20260504204248 0 114 11.3 16.5 0.00 0.00 0.01 1023.6
20260504203747 0 117 11.3 16.5 0.00 0.00 0.01 1023.6
20260504203248 0 110 8.7 16.5 0.00 0.00 0.01 1023.6
20260504202748 0 118 10.4 16.5 0.00 0.00 0.01 1023.4
20260504202247 0 123 8.7 13.9 0.00 0.00 0.01 1023.6
20260504201748 0 115 9.6 13.9 0.00 0.00 0.01 1023.7
20260504201248 0 123 7.0 11.3 0.00 0.00 0.01 1023.6
20260504200233 0 115 7.8 13.0 0.00 0.00 0.01 1023.7
20260504195733 0 120 7.8 13.0 0.00 0.00 0.01 1024.0
20260504195233 0 86 4.3 13.0 0.00 0.00 0.01 1023.8
20260504194733 0 90 7.0 13.9 0.00 0.00 0.01 1023.7
20260504193718 0 114 9.6 13.9 0.00 0.00 0.01 1024.0
20260504193218 0 100 7.0 14.8 0.00 0.00 0.01 1024.1
20260504192718 0 99 9.6 14.8 0.00 0.00 0.01 1024.3
20260504192217 0 93 6.1 12.2 0.00 0.00 0.01 1024.3
20260504191717 0 47 4.3 9.6 0.00 0.00 0.01 1024.1
20260504191217 0 66 2.6 11.3 0.00 0.00 0.01 1024.3
20260504190717 0 83 2.6 11.3 0.00 0.00 0.01 1024.3
20260504190217 0 87 4.3 10.4 0.00 0.00 0.01 1024.3
20260504185716 0 84 4.3 10.4 0.00 0.00 0.01 1024.3
20260504184701 0 34 5.2 11.3 0.00 0.00 0.01 1024.1
20260504184201 0 57 4.3 10.4 0.00 0.00 0.01 1024.2
20260504183146 0 91 6.1 14.8 0.00 0.00 0.01 1024.5
20260504182131 0 99 4.3 13.9 0.00 0.00 0.01 1024.4
20260504181631 0 80 5.2 13.9 0.00 0.00 0.01 1024.7
20260504181130 0 92 4.3 13.9 0.00 0.00 0.01 1024.6
20260504180630 0 93 5.2 12.2 0.00 0.00 0.01 1024.6
20260504180130 0 107 6.1 13.0 0.00 0.00 0.01 1024.4
20260504175630 0 88 5.2 13.0 0.01 0.00 0.01 1024.6
20260504175130 0 122 7.0 14.8 0.01 0.00 0.01 1024.7
20260504174630 0 122 7.0 14.8 0.01 0.00 0.01 1024.9
20260504173100 0 93 5.2 16.5 0.01 0.00 0.01 1024.8
20260504172045 0 89 7.8 13.0 0.01 0.00 0.01 1025.3
20260504171545 0 86 6.1 13.0 0.01 0.00 0.01 1025.2
20260504171045 0 75 4.3 12.2 0.01 0.00 0.01 1025.4
20260504170545 0 97 7.8 14.8 0.01 0.00 0.01 1025.7
20260504160443 0 116 8.7 13.0 0.00 0.00 0.00 1026.1
20260504150912 0 127 9.6 16.5 0.00 0.00 0.00 1026.1
20260504150412 0 113 9.6 18.2 0.00 0.00 0.00 1026.6
20260504140326 0 89 7.8 14.8 0.00 0.00 0.00 1026.5
20260504130739 0 81 4.3 10.4 0.00 0.00 0.00 1026.6
20260504130239 0 55 3.5 12.2 0.00 0.00 0.00 1027.0
20260504120208 0 44 4.3 13.0 0.00 0.00 0.00 1026.4